Regional Weather Roundup
Issued by NWS Sioux Falls, SD

Home | Current Version | Previous Version | Text Only | Print | Product List | Glossary Off
Versions: 1 2 3 4 5 6 7 8 9 10 11 12 13 14 15 16 17 18 19 20 21 22 23 24 25 26 27 28 29 30 31 32 33 34 35 36 37 38 39 40 41 42 43 44 45 46 47 48 49 50

714
ASUS43 KFSD 271410
RWRFSD

WEATHER ROUNDUP FOR SE SOUTH DAKOTA/SW MINNESOTA/NW IOWA
NATIONAL WEATHER SERVICE SIOUX FALLS SD
800 AM CST MON FEB 27 2017

NOTE: "FAIR" INDICATES FEW OR NO CLOUDS BELOW 12,000 FEET WITH NO
SIGNIFICANT WEATHER AND OR OBSTRUCTIONS TO VISIBILITY.


SDZ038>040-050-052>070-271500-
SOUTHEAST SOUTH DAKOTA

CITY           SKY/WX    TMP DP  RH WIND       PRES   REMARKS
BROOKINGS      CLOUDY    22  17  81 S8        29.87R WCI  12
CHAMBERLAIN    CLEAR     23  17  75 CALM      29.81S
HURON          CLOUDY    21  17  84 SE7       29.85S WCI  12
MADISON        FAIR      23  19  86 SW8       29.86S WCI  14
MITCHELL       CLOUDY    22  17  81 SE6       29.87F WCI  14
SIOUX FALLS    PTCLDY    24  20  84 S5        29.90R WCI  18
WINNER         FAIR      30  12  47 S21       29.75F WCI  17
YANKTON        CLEAR     18  14  86 SE3       29.91R
$$

MNZ071-072-080-081-089-090-097-098-271500-
SOUTHWEST MINNESOTA

CITY           SKY/WX    TMP DP  RH WIND       PRES   REMARKS
FAIRMONT       SUNNY     20  14  77 S9        29.96S WCI   9
JACKSON          N/A     23  19  86 S9        29.94R WCI  13
LUVERNE        CLOUDY    23  19  86 S5        29.92R WCI  17
MARSHALL       CLOUDY    27  21  78 SW17      29.88S WCI  14
MONTEVIDEO     CLEAR     27  23  86 S3        29.91S
PIPESTONE      CLOUDY    25  19  80 S5        29.89R WCI  19
REDWOOD FALLS  CLEAR     26  21  81 E3        29.91S
TRACY          PTCLDY    29  24  79 SW13      29.89S WCI  19
WINDOM         CLEAR     28  21  74 S8        29.92S WCI  20
WORTHINGTON    CLEAR     26  20  77 S14       29.92R WCI  14
$$

IAZ001>003-012>014-020>022-031-032-NEZ013-014-SDZ071-271500-
NORTHWEST IOWA

CITY           SKY/WX    TMP DP  RH WIND       PRES   REMARKS
CHEROKEE       CLEAR     13  13  98 CALM      29.96S
DENISON          N/A     19  18  93 CALM      29.95S
ESTHERVILLE    CLEAR     16  13  88 S8        29.95R WCI   5
LE MARS        CLEAR     21  18  86 S5        29.95S WCI  15
SHELDON        CLEAR     21  21 100 SE6       29.92S WCI  14
SIOUX CITY     CLEAR     17  15  92 SE8       29.96R WCI   7
SPENCER        CLEAR     18  14  84 CALM      29.95R
STORM LAKE     PTCLDY    21  16  79 S14       29.95S WCI   8
$$

ABBREVIATIONS USED IN REMARKS
   TC - TEMPERATURE IN CELSIUS
  WCI - WIND CHILL INDEX
   HX - HEAT INDEX
  VSB - VISIBILITY





USA.gov is the U.S. government's official web portal to all federal, state and local government web resources and services.